W2TAO Weather Reports


time (UTC)temp
C
wind
direction
speed
KPH
gust
KPH
rain 1hr
cm
rain 24hr
cm
rain mn
cm
humidity
%
barometer
mb
20260509034840 5 10 0.0 3.2 0.00 0.18 0.18 93 1014.4
20260509034338 5 44 0.0 1.6 0.00 0.18 0.18 92 1014.4
20260509033835 5 63 0.0 1.6 0.00 0.18 0.18 92 1014.4
20260509033332 6 44 0.0 1.6 0.00 0.18 0.18 92 1014.4
20260509032828 6 32 0.0 0.0 0.00 0.18 0.18 92 1014.2
20260509032326 6 32 0.0 0.0 0.00 0.18 0.18 91 1014.2
20260509031824 6 352 0.0 1.6 0.00 0.18 0.18 91 1014.2
20260509031321 6 93 0.0 0.0 0.00 0.18 0.18 90 1014.2
20260509030819 6 101 0.0 1.6 0.00 0.18 0.18 90 1014.3
20260509030316 7 113 0.0 1.6 0.00 0.18 0.18 90 1014.3
20260509025813 7 293 0.0 1.6 0.00 0.18 0.18 89 1014.4
20260509025308 7 7 1.6 1.6 0.00 0.18 0.18 88 1014.4
20260509024804 7 243 0.0 0.0 0.00 0.18 0.18 88 1014.4
20260509024300 7 341 0.0 0.0 0.00 0.18 0.18 88 1014.2
20260509023757 7 352 0.0 0.0 0.00 0.18 0.18 88 1014.2
20260509023255 7 352 0.0 0.0 0.00 0.18 0.18 88 1014.2
20260509022750 7 352 0.0 0.0 0.00 0.18 0.18 87 1014.2
20260509022248 7 352 1.6 1.6 0.00 0.18 0.18 87 1014.2
20260509021745 7 315 0.0 0.0 0.00 0.18 0.18 86 1014.2
20260509021242 7 315 0.0 3.2 0.00 0.18 0.18 85 1013.9
20260509020740 7 66 0.0 0.0 0.00 0.18 0.18 86 1014.0
20260509020237 7 287 0.0 3.2 0.00 0.18 0.18 85 1014.1
20260509015735 7 110 0.0 1.6 0.00 0.18 0.18 86 1014.0
20260509015233 8 316 0.0 1.6 0.00 0.18 0.18 85 1014.1
20260509014729 8 4 1.6 3.2 0.00 0.18 0.18 85 1014.0
20260509014226 8 246 0.0 0.0 0.00 0.18 0.18 83 1013.9
20260509013723 8 246 0.0 1.6 0.00 0.18 0.18 83 1014.1
20260509013219 7 212 0.0 1.6 0.00 0.18 0.18 83 1013.7
20260509012715 7 267 1.6 3.2 0.00 0.18 0.18 83 1013.6
20260509012212 7 293 0.0 1.6 0.00 0.18 0.18 83 1013.7
20260509011710 8 296 3.2 3.2 0.00 0.18 0.18 84 1013.6
20260509011207 8 55 0.0 0.0 0.00 0.18 0.18 84 1013.6
20260509010705 8 311 0.0 1.6 0.00 0.18 0.18 83 1013.5
20260509010201 8 347 0.0 1.6 0.00 0.18 0.18 83 1013.4
20260509005659 8 336 0.0 0.0 0.00 0.18 0.18 81 1013.4
20260509005155 8 44 0.0 3.2 0.00 0.18 0.18 81 1013.4
20260509004650 8 85 0.0 1.6 0.00 0.18 0.18 81 1013.5
20260509004148 8 55 0.0 1.6 0.00 0.18 0.18 80 1013.3
20260509003647 8 315 0.0 0.0 0.00 0.18 0.18 79 1013.2
20260509003143 8 315 0.0 0.0 0.00 0.18 0.18 80 1013.0
20260509002641 8 32 0.0 0.0 0.00 0.18 0.18 80 1013.1
20260509002138 8 235 0.0 0.0 0.00 0.18 0.18 77 1013.1
20260509001636 8 235 0.0 0.0 0.00 0.18 0.18 77 1012.9
20260509001131 8 55 0.0 0.0 0.00 0.18 0.18 76 1012.7
20260509000630 8 135 0.0 0.0 0.00 0.18 0.18 74 1012.8
20260509000126 8 66 0.0 0.0 0.00 0.18 0.18 74 1012.8
20260508235623 9 55 0.0 0.0 0.00 0.18 0.18 74 1012.8
20260508235120 10 98 1.6 1.6 0.00 0.18 0.18 71 1012.7
20260508234617 10 326 0.0 1.6 0.00 0.18 0.18 70 1012.7
20260508234113 10 218 0.0 1.6 0.00 0.18 0.18 69 1012.6
20260508233613 10 341 1.6 3.2 0.00 0.18 0.18 66 1012.7
20260508233110 10 295 3.2 6.4 0.00 0.18 0.18 64 1012.6
20260508232607 11 232 1.6 3.2 0.00 0.18 0.18 63 1012.5
20260508232103 11 295 0.0 4.8 0.00 0.18 0.18 63 1012.5
20260508231602 11 264 3.2 6.4 0.00 0.18 0.18 63 1012.8
20260508231058 11 282 4.8 8.0 0.00 0.18 0.18 61 1012.8
20260508230554 11 240 1.6 6.4 0.00 0.18 0.18 64 1012.7
20260508230051 11 251 1.6 6.4 0.00 0.18 0.18 62 1012.7
20260508225549 11 260 3.2 6.4 0.00 0.18 0.18 61 1012.6
20260508225045 11 233 6.4 6.4 0.00 0.18 0.18 61 1012.7
20260508224543 11 230 6.4 6.4 0.00 0.18 0.18 61 1012.5
20260508224040 11 245 6.4 9.7 0.00 0.18 0.18 59 1012.5
20260508223538 11 286 0.0 6.4 0.00 0.18 0.18 61 1012.5
20260508223035 11 253 4.8 6.4 0.00 0.18 0.18 60 1012.5
20260508222533 11 251 4.8 8.0 0.00 0.18 0.18 58 1012.3
20260508222029 11 238 8.0 8.0 0.00 0.18 0.18 61 1012.4
20260508221526 11 267 3.2 6.4 0.00 0.18 0.18 60 1012.2
20260508221021 11 223 4.8 8.0 0.00 0.18 0.18 60 1012.3
20260508220518 12 251 6.4 6.4 0.00 0.18 0.18 60 1012.4
20260508220015 11 260 6.4 6.4 0.00 0.18 0.18 58 1012.3
20260508215511 11 245 3.2 9.7 0.00 0.18 0.18 60 1012.4
20260508215008 11 242 4.8 8.0 0.00 0.18 0.18 57 1012.3
20260508214506 12 276 4.8 6.4 0.00 0.18 0.18 58 1012.2
20260508214001 12 288 3.2 4.8 0.00 0.18 0.18 55 1012.4
20260508213500 12 247 6.4 8.0 0.00 0.18 0.18 54 1012.3
20260508212954 12 140 3.2 6.4 0.00 0.18 0.18 54 1012.2
20260508212451 12 44 0.0 6.4 0.00 0.18 0.18 54 1012.3
20260508211948 12 253 4.8 9.7 0.00 0.18 0.18 54 1012.4
20260508211443 13 264 3.2 3.2 0.00 0.18 0.18 53 1012.3
20260508210940 12 262 6.4 9.7 0.00 0.18 0.18 53 1012.3
20260508210437 12 246 6.4 14.5 0.00 0.18 0.18 53 1012.4
20260508205933 12 242 8.0 16.1 0.00 0.18 0.18 53 1012.5
20260508205431 12 262 9.7 12.9 0.00 0.18 0.18 53 1012.2
20260508204927 12 236 9.7 12.9 0.00 0.18 0.18 52 1012.4
20260508204424 12 232 6.4 14.5 0.00 0.18 0.18 53 1012.3
20260508203919 12 257 11.3 22.5 0.00 0.18 0.18 52 1012.5
20260508203416 12 269 6.4 20.9 0.00 0.18 0.18 52 1012.5
20260508202912 13 242 12.9 14.5 0.00 0.18 0.18 51 1012.3
20260508202410 13 180 3.2 16.1 0.00 0.18 0.18 51 1012.4
20260508201907 12 233 11.3 16.1 0.00 0.18 0.18 54 1012.4
20260508201403 12 256 12.9 17.7 0.00 0.18 0.18 53 1012.4
20260508200859 12 251 8.0 16.1 0.00 0.18 0.18 53 1012.5
20260508200356 13 257 11.3 17.7 0.00 0.18 0.18 51 1012.1
20260508195852 12 257 9.7 14.5 0.00 0.18 0.18 54 1012.3
20260508195349 12 350 3.2 9.7 0.00 0.18 0.18 56 1012.6
20260508194845 12 260 12.9 19.3 0.00 0.18 0.18 54 1012.9
20260508194342 12 283 9.7 24.1 0.00 0.18 0.18 55 1012.6
20260508193839 12 307 9.7 19.3 0.00 0.18 0.18 57 1012.6
20260508193336 12 233 9.7 17.7 0.00 0.18 0.18 57 1012.8
20260508192832 12 258 6.4 12.9 0.00 0.18 0.18 56 1012.5
20260508192329 12 236 8.0 14.5 0.00 0.18 0.18 56 1012.8
20260508191827 12 233 14.5 17.7 0.00 0.18 0.18 58 1012.6
20260508191324 13 277 6.4 11.3 0.00 0.18 0.18 60 1012.9
20260508190821 10 256 9.7 17.7 0.00 0.18 0.18 63 1013.0
20260508190317 11 247 9.7 12.9 0.00 0.18 0.18 66 1012.9
20260508185813 11 244 8.0 24.1 0.00 0.18 0.18 64 1012.9
20260508185311 12 225 6.4 29.0 0.00 0.18 0.18 65 1012.9
20260508184808 12 235 9.7 12.9 0.00 0.18 0.18 60 1013.1
20260508184305 11 239 9.7 9.7 0.00 0.18 0.18 70 1013.0
20260508183803 10 237 17.7 24.1 0.00 0.18 0.18 68 1013.2
20260508183259 10 217 14.5 27.4 0.00 0.18 0.18 66 1013.1
20260508182755 11 217 16.1 20.9 0.00 0.18 0.18 67 1013.3
20260508182252 11 181 8.0 19.3 0.00 0.18 0.18 65 1013.3
20260508181747 10 250 8.0 14.5 0.00 0.18 0.18 64 1013.2
20260508181244 10 237 9.7 19.3 0.00 0.18 0.18 65 1013.2
20260508180741 10 265 8.0 16.1 0.00 0.18 0.18 64 1013.1
20260508180238 10 321 17.7 20.9 0.00 0.18 0.18 62 1013.1
20260508175734 10 351 8.0 24.1 0.00 0.18 0.18 62 1013.0
20260508175231 10 250 17.7 20.9 0.00 0.18 0.18 61 1012.9
20260508174729 10 226 11.3 19.3 0.00 0.18 0.18 62 1013.1
20260508174226 10 242 16.1 24.1 0.00 0.18 0.18 59 1013.0
20260508173722 10 288 8.0 11.3 0.00 0.18 0.18 59 1012.9
20260508173218 10 252 6.4 9.7 0.00 0.18 0.18 62 1012.8
20260508172715 10 232 12.9 16.1 0.00 0.18 0.18 59 1012.9
20260508172212 11 265 8.0 17.7 0.00 0.18 0.18 59 1012.8
20260508171709 11 273 4.8 14.5 0.00 0.18 0.18 60 1012.6
20260508171205 11 227 6.4 14.5 0.00 0.18 0.18 60 1012.5
20260508170702 11 248 12.9 14.5 0.00 0.18 0.18 59 1012.6
20260508170200 11 233 6.4 17.7 0.00 0.18 0.18 60 1012.5
20260508165657 11 245 6.4 9.7 0.00 0.18 0.18 57 1012.6
20260508165154 11 246 11.3 14.5 0.00 0.18 0.18 59 1012.7
20260508164650 11 280 3.2 11.3 0.00 0.18 0.18 61 1012.6
20260508164147 12 288 9.7 16.1 0.00 0.18 0.18 57 1012.7
20260508163645 11 293 6.4 9.7 0.00 0.18 0.18 65 1012.7
20260508163142 10 250 8.0 20.9 0.00 0.18 0.18 60 1012.9
20260508162637 10 239 17.7 19.3 0.00 0.18 0.18 59 1012.9
20260508162135 11 247 8.0 14.5 0.00 0.18 0.18 59 1012.8
20260508161632 10 239 6.4 16.1 0.00 0.18 0.18 60 1013.0
20260508161129 11 230 16.1 19.3 0.00 0.18 0.18 60 1012.8
20260508160628 11 239 6.4 12.9 0.00 0.18 0.18 59 1013.0
20260508160125 11 231 6.4 9.7 0.00 0.18 0.18 61 1013.0
20260508155621 10 228 14.5 14.5 0.00 0.18 0.18 61 1012.9
20260508155118 10 229 8.0 14.5 0.00 0.18 0.18 61 1013.2
20260508154615 9 264 9.7 11.3 0.00 0.18 0.18 62 1013.2
20260508154112 9 254 8.0 8.0 0.00 0.18 0.18 61 1013.3
20260508153609 10 284 4.8 9.7 0.00 0.18 0.18 63 1013.2
20260508153106 10 267 8.0 14.5 0.00 0.18 0.18 58 1013.0
20260508152603 10 346 6.4 17.7 0.00 0.18 0.18 61 1013.1
20260508152058 10 246 9.7 19.3 0.00 0.18 0.18 63 1013.1
20260508151555 10 248 11.3 22.5 0.00 0.18 0.18 60 1013.1
20260508151052 10 239 9.7 9.7 0.00 0.18 0.18 67 1013.2
20260508150549 9 252 6.4 17.7 0.00 0.18 0.18 65 1013.3
20260508150044 10 184 4.8 17.7 0.00 0.18 0.18 65 1013.2
20260508145542 10 277 9.7 17.7 0.00 0.18 0.18 66 1013.1
20260508145038 9 231 6.4 8.0 0.00 0.18 0.18 67 1013.2
20260508144536 8 178 3.2 8.0 0.00 0.18 0.18 70 1013.4
20260508144033 8 304 4.8 6.4 0.00 0.18 0.18 69 1013.5
20260508143531 8 233 4.8 16.1 0.00 0.18 0.18 70 1013.5
20260508143027 8 224 11.3 19.3 0.00 0.18 0.18 67 1013.4
20260508142524 9 236 4.8 9.7 0.00 0.18 0.18 69 1013.4
20260508142020 8 230 6.4 11.3 0.00 0.18 0.18 71 1013.4
20260508141517 8 286 3.2 12.9 0.00 0.18 0.18 72 1013.4
20260508141015 8 230 8.0 12.9 0.00 0.18 0.18 72 1013.2
20260508140512 9 215 4.8 8.0 0.00 0.18 0.18 70 1013.2
20260508140008 8 220 11.3 14.5 0.00 0.18 0.18 73 1013.3
20260508135504 9 286 6.4 8.0 0.00 0.18 0.18 77 1013.6
20260508135000 8 132 3.2 4.8 0.00 0.18 0.18 74 1013.6
20260508134457 8 265 6.4 9.7 0.00 0.18 0.18 77 1013.6
20260508133954 8 143 1.6 6.4 0.00 0.18 0.18 79 1013.5
20260508133451 8 257 6.4 9.7 0.00 0.18 0.18 80 1013.6
20260508132948 7 198 4.8 12.9 0.00 0.18 0.18 82 1013.9
20260508132446 8 241 12.9 12.9 0.00 0.18 0.18 81 1014.0
20260508131942 8 226 11.3 16.1 0.00 0.18 0.18 80 1014.0
20260508131438 7 334 8.0 9.7 0.00 0.18 0.18 80 1013.9
20260508130935 6 246 8.0 12.9 0.00 0.18 0.18 84 1013.9
20260508130432 6 238 9.7 11.3 0.00 0.18 0.18 83 1014.0
20260508125927 7 247 4.8 6.4 0.00 0.18 0.18 86 1013.9
20260508125424 6 233 8.0 9.7 0.00 0.18 0.18 83 1013.7
20260508124922 6 246 0.0 8.0 0.00 0.18 0.18 84 1014.1
20260508124419 6 314 1.6 9.7 0.00 0.18 0.18 90 1014.0
20260508123917 5 249 4.8 6.4 0.00 0.18 0.18 88 1013.9
20260508123415 5 319 3.2 14.5 0.00 0.18 0.18 87 1013.9
20260508122911 5 249 4.8 9.7 0.00 0.18 0.18 93 1013.9
20260508122408 5 185 1.6 8.0 0.00 0.18 0.18 96 1013.9
20260508121905 5 300 3.2 4.8 0.00 0.18 0.18 98 1013.9
20260508121404 5 151 0.0 4.8 0.00 0.18 0.18 98 1014.0
20260508120901 5 246 4.8 6.4 0.00 0.18 0.18 99 1014.1
20260508120358 5 293 4.8 6.4 0.00 0.18 0.18 99 1013.7
20260508115856 5 195 4.8 4.8 0.00 0.18 0.18 99 1013.7
20260508115353 5 264 4.8 6.4 0.00 0.18 0.18 99 1014.0
20260508114849 5 26 0.0 1.6 0.00 0.18 0.18 99 1013.6
20260508114347 4 288 3.2 4.8 0.00 0.18 0.18 99 1013.9
20260508113843 3 221 4.8 6.4 0.00 0.18 0.18 99 1014.0
20260508113341 3 184 1.6 3.2 0.00 0.18 0.18 99 1014.1
20260508112838 3 247 4.8 6.4 0.00 0.18 0.18 99 1014.0
20260508112335 3 244 4.8 6.4 0.00 0.18 0.18 99 1013.9
20260508111831 3 109 0.0 3.2 0.00 0.18 0.18 99 1013.7
20260508111328 3 254 0.0 4.8 0.00 0.18 0.18 99 1014.0
20260508110826 3 333 0.0 3.2 0.00 0.18 0.18 99 1013.9
20260508110323 3 72 0.0 4.8 0.00 0.18 0.18 99 1013.9
20260508105823 2 79 1.6 3.2 0.00 0.18 0.18 99 1013.9
20260508105320 2 222 0.0 3.2 0.00 0.18 0.18 99 1013.5
20260508104817 2 120 0.0 3.2 0.00 0.18 0.18 99 1013.6
20260508104313 1 107 1.6 4.8 0.00 0.18 0.18 99 1013.5
20260508103811 1 60 0.0 3.2 0.00 0.18 0.18 99 1013.5
20260508103308 1 50 0.0 1.6 0.00 0.18 0.18 99 1013.2
20260508102806 1 327 0.0 3.2 0.00 0.18 0.18 99 1013.4
20260508102306 1 292 3.2 3.2 0.00 0.18 0.18 99 1013.3
20260508101800 1 271 3.2 3.2 0.00 0.18 0.18 99 1013.2
20260508101258 1 2 0.0 3.2 0.00 0.18 0.18 99 1013.1
20260508100755 1 65 0.0 3.2 0.00 0.18 0.18 99 1013.2
20260508100253 1 7 0.0 3.2 0.00 0.18 0.18 99 1013.3
20260508095749 1 43 1.6 3.2 0.00 0.18 0.18 99 1013.3
20260508095247 1 16 1.6 3.2 0.00 0.18 0.18 99 1013.1
20260508094743 1 240 3.2 3.2 0.00 0.18 0.18 99 1013.2
20260508094240 1 304 0.0 3.2 0.00 0.18 0.18 99 1012.9
20260508093737 1 74 3.2 4.8 0.00 0.18 0.18 99 1013.1
20260508093235 1 269 1.6 3.2 0.00 0.18 0.18 99 1013.1
20260508092732 2 259 1.6 3.2 0.00 0.18 0.18 99 1013.0
20260508092230 2 209 0.0 3.2 0.00 0.18 0.18 99 1013.0
20260508091728 2 278 0.0 3.2 0.00 0.18 0.18 99 1012.8
20260508091224 2 213 3.2 4.8 0.00 0.18 0.18 99 1013.0
20260508090722 2 82 1.6 3.2 0.00 0.18 0.18 99 1013.0
20260508090220 2 64 1.6 3.2 0.00 0.18 0.18 99 1013.0
20260508085715 2 266 0.0 1.6 0.00 0.18 0.18 99 1013.0
20260508085213 2 252 1.6 4.8 0.00 0.18 0.18 99 1012.9
20260508084708 2 237 1.6 3.2 0.00 0.18 0.18 99 1012.8
20260508084206 2 72 0.0 3.2 0.00 0.18 0.18 99 1012.7
20260508083704 2 54 3.2 3.2 0.00 0.18 0.18 99 1012.8
20260508083201 2 22 0.0 3.2 0.00 0.18 0.18 99 1012.9
20260508082656 3 32 0.0 1.6 0.00 0.18 0.18 99 1012.8
20260508082153 3 66 0.0 0.0 0.00 0.18 0.18 99 1012.8
20260508081651 3 66 0.0 0.0 0.00 0.18 0.18 99 1012.7
20260508081147 3 282 0.0 0.0 0.00 0.18 0.18 99 1012.7
20260508080645 3 209 0.0 0.0 0.00 0.18 0.18 99 1012.7
20260508080143 3 127 1.6 3.2 0.00 0.18 0.18 99 1012.6
20260508075639 3 73 0.0 1.6 0.00 0.18 0.18 99 1012.7
20260508075136 3 116 0.0 1.6 0.00 0.18 0.18 99 1012.5
20260508074634 3 110 1.6 1.6 0.00 0.18 0.18 99 1012.6
20260508074130 3 212 0.0 0.0 0.00 0.18 0.18 99 1012.6
20260508073627 3 321 0.0 0.0 0.00 0.18 0.18 99 1012.5
20260508073126 3 224 0.0 0.0 0.00 0.18 0.18 99 1012.6
20260508072620 3 113 0.0 0.0 0.00 0.18 0.18 99 1012.7
20260508072118 4 69 0.0 0.0 0.00 0.18 0.18 99 1012.5
20260508071616 4 143 0.0 1.6 0.00 0.18 0.18 99 1012.5
20260508071114 4 341 0.0 3.2 0.00 0.18 0.18 99 1012.5
20260508070611 4 269 0.0 3.2 0.00 0.18 0.18 99 1012.5
20260508070109 4 180 1.6 3.2 0.00 0.18 0.18 99 1012.4
20260508065606 5 220 3.2 6.4 0.00 0.18 0.18 99 1012.5
20260508065104 4 233 3.2 4.8 0.00 0.18 0.18 99 1012.4
20260508064602 4 316 1.6 3.2 0.00 0.18 0.18 99 1012.4
20260508064059 5 83 1.6 1.6 0.05 0.18 0.18 99 1012.6
20260508063556 5 283 1.6 3.2 0.05 0.18 0.18 99 1012.6
20260508063055 5 123 0.0 1.6 0.00 0.18 0.18 99 1012.8
20260508062552 5 249 0.0 1.6 0.00 0.18 0.18 98 1012.9
20260508062048 5 284 0.0 1.6 0.00 0.18 0.18 98 1012.9
20260508061546 5 248 4.8 4.8 0.00 0.18 0.18 98 1013.0
20260508061043 5 247 3.2 4.8 0.00 0.18 0.18 98 1012.8
20260508060539 5 245 3.2 4.8 0.00 0.18 0.18 97 1012.7
20260508060037 5 314 1.6 3.2 0.00 0.18 0.18 97 1012.6
20260508055532 5 44 0.0 0.0 0.00 0.18 0.18 97 1012.7
20260508055030 5 32 0.0 1.6 0.00 0.18 0.18 97 1012.8
20260508054526 5 293 0.0 3.2 0.00 0.18 0.18 97 1012.9
20260508054023 5 103 0.0 1.6 0.00 0.18 0.18 96 1013.0
20260508053520 5 280 1.6 4.8 0.05 0.18 0.18 96 1013.1
20260508053019 5 230 3.2 3.2 0.23 0.18 0.18 96 1013.1
20260508052515 5 228 3.2 3.2 0.36 0.18 0.18 95 1013.1
20260508052012 5 249 4.8 4.8 0.43 0.15 0.15 94 1013.4
20260508051508 5 258 1.6 4.8 0.30 0.10 0.10 93 1013.3
20260508051003 5 269 3.2 8.0 0.23 0.08 0.08 93 1013.6
20260508050500 5 232 6.4 12.9 0.13 0.05 0.05 91 1013.6
20260508045957 5 277 8.0 9.7 0.13 0.03 0.03 94 1013.4
20260508045454 6 224 3.2 6.4 0.13 0.03 0.03 92 1012.7
20260508044951 6 271 6.4 9.7 0.05 0.00 0.00 87 1012.2
20260508044449 6 353 0.0 1.6 0.00 0.00 0.00 87 1011.8
20260508043943 6 320 3.2 3.2 0.00 0.00 0.00 87 1011.6
20260508043441 6 2 0.0 3.2 0.00 0.00 0.00 86 1011.4
20260508042937 6 260 1.6 3.2 0.00 0.00 0.00 85 1011.5
20260508042436 6 321 0.0 1.6 0.00 0.00 0.00 84 1011.2
20260508041932 6 38 0.0 1.6 0.00 0.00 0.00 81 1010.8
20260508041429 6 124 0.0 1.6 0.00 0.00 0.00 82 1011.1
20260508040925 6 198 1.6 3.2 0.00 0.00 0.00 82 1011.1
20260508040423 6 223 1.6 3.2 0.00 0.00 0.00 83 1011.0
20260508035921 6 234 3.2 3.2 0.00 0.03 0.03 82 1011.1
20260508035417 6 220 1.6 1.6 0.00 0.03 0.03 82 1011.1